EW5349 Weather Reports


time (UTC)temp
C
wind
direction
speed
KPH
gust
KPH
rain 1hr
cm
rain 24hr
cm
rain mn
cm
humidity
%
barometer
mb
20260506103026 23 92 0.0 0.0 0.00 0.00 0.00 94 1006.3
20260506101520 23 88 0.0 0.0 0.00 0.00 0.00 94 1006.1
20260506100018 23 84 0.0 0.0 0.00 0.00 0.00 94 1006.0
20260506094529 23 153 0.0 0.0 0.00 0.00 0.00 94 1006.0
20260506093026 23 131 0.0 0.0 0.00 0.00 0.00 94 1005.8
20260506091515 23 351 0.0 0.0 0.00 0.00 0.00 94 1005.8
20260506090015 23 124 0.0 0.0 0.00 0.00 0.00 94 1005.7
20260506084513 23 121 0.0 1.6 0.00 0.00 0.00 93 1005.6
20260506083012 23 79 0.0 0.0 0.00 0.00 0.00 93 1005.6
20260506081510 23 122 0.0 0.0 0.00 0.00 0.00 92 1005.7
20260506073006 23 115 0.0 0.0 0.00 0.00 0.00 92 1006.1
20260506071507 23 84 0.0 3.2 0.00 0.00 0.00 92 1006.2
20260506061502 23 330 0.0 1.6 0.00 0.00 0.00 92 1006.4
20260506050105 23 219 0.0 1.6 0.00 0.00 0.00 90 1006.5
20260506044601 23 180 0.0 1.6 0.00 0.00 0.00 90 1006.3
20260506043054 24 333 0.0 0.0 0.00 0.00 0.00 90 1006.5
20260506041556 24 150 0.0 0.0 0.00 0.00 0.00 90 1006.2
20260506040053 24 122 0.0 0.0 0.00 0.00 0.00 90 1006.1
20260506034553 24 160 0.0 1.6 0.00 0.00 0.00 89 1006.0
20260506033052 24 129 0.0 0.0 0.00 0.00 0.00 90 1005.6
20260506031600 24 124 0.0 0.0 0.00 0.00 0.00 90 1005.5
20260506030109 24 314 0.0 1.6 0.00 0.00 0.00 89 1005.3
20260506024551 25 102 0.0 1.6 0.00 0.00 0.00 88 1005.2
20260506023050 25 231 0.0 1.6 0.00 0.00 0.00 88 1004.9
20260506021549 25 134 0.0 1.6 0.00 0.00 0.00 87 1004.3
20260506020049 25 205 0.0 0.0 0.00 0.00 0.00 86 1004.2
20260506014555 25 217 0.0 0.0 0.00 0.00 0.00 85 1004.1
20260506013050 25 84 0.0 0.0 0.00 0.00 0.00 84 1004.0
20260506011554 26 298 0.0 0.0 0.00 0.00 0.00 83 1004.2
20260506010051 26 298 0.0 0.0 0.00 0.00 0.00 81 1004.2
20260506004621 26 298 0.0 0.0 0.00 0.00 0.00 80 1004.1
20260506003045 27 120 0.0 0.0 0.00 0.00 0.00 79 1003.9
20260506001545 27 133 0.0 1.6 0.00 0.00 0.00 78 1003.9
20260506000046 27 96 0.0 1.6 0.00 0.00 0.00 76 1003.8
20260505234645 27 138 0.0 0.0 0.00 0.00 0.00 74 1003.7
20260505233043 28 134 0.0 0.0 0.00 0.00 0.00 75 1003.6
20260505231542 28 150 0.0 4.8 0.00 0.00 0.00 74 1003.7
20260505230045 28 271 0.0 1.6 0.00 0.00 0.00 74 1003.5
20260505224541 28 236 0.0 3.2 0.00 0.00 0.00 74 1003.4
20260505223056 28 151 0.0 0.0 0.00 0.00 0.00 75 1003.5
20260505221555 28 212 0.0 1.6 0.00 0.00 0.00 70 1003.4
20260505220038 28 146 0.0 3.2 0.00 0.00 0.00 71 1003.6
20260505214542 29 153 0.0 1.6 0.00 0.00 0.00 70 1003.8
20260505213034 29 354 0.0 1.6 0.00 0.00 0.00 69 1004.0
20260505211533 29 113 0.0 4.8 0.00 0.00 0.00 72 1003.9
20260505210031 28 210 0.0 3.2 0.00 0.00 0.00 71 1004.3
20260505204528 28 143 0.0 3.2 0.00 0.00 0.00 72 1004.5
20260505203024 28 108 0.0 4.8 0.00 0.00 0.00 74 1004.8
20260505201526 28 88 0.0 1.6 0.00 0.00 0.00 75 1005.1
20260505200024 27 108 0.0 1.6 0.00 0.00 0.00 75 1005.2
20260505194518 28 159 0.0 3.2 0.00 0.00 0.00 75 1005.4
20260505193015 27 155 0.0 1.6 0.00 0.00 0.00 75 1005.4
20260505191514 27 304 0.0 4.8 0.00 0.00 0.00 76 1005.8
20260505190011 27 240 0.0 1.6 0.00 0.00 0.00 78 1005.8
20260505184520 26 127 0.0 0.0 0.00 0.00 0.00 81 1005.9
20260505183013 26 295 0.0 0.0 0.00 0.00 0.00 80 1006.1
20260505181503 26 336 0.0 1.6 0.00 0.00 0.00 82 1006.2
20260505174559 25 296 0.0 1.6 0.00 0.00 0.00 84 1006.7
20260505173054 24 107 0.0 0.0 0.00 0.00 0.00 86 1007.0
20260505171551 23 119 0.0 1.6 0.00 0.00 0.00 87 1006.9
20260505170048 23 93 0.0 3.2 0.00 0.00 0.00 87 1007.1
20260505164546 23 165 0.0 1.6 0.00 0.00 0.00 88 1006.9
20260505163041 22 95 0.0 3.2 0.00 0.00 0.00 89 1006.9
20260505161540 22 237 0.0 1.6 0.00 0.00 0.00 90 1007.1
20260505153027 21 305 0.0 1.6 0.00 0.00 0.00 92 1007.0
20260505151525 21 98 0.0 3.2 0.00 0.00 0.00 92 1006.9
20260505124517 21 97 0.0 1.6 0.00 0.00 0.00 93 1005.9
20260505123015 21 136 0.0 4.8 0.00 0.00 0.00 93 1005.7
20260505121516 21 163 0.0 0.0 0.00 0.00 0.00 93 1005.5
20260505120014 20 110 0.0 0.0 0.00 0.00 0.00 93 1005.5
20260505114514 20 148 0.0 1.6 0.00 0.00 0.00 93 1005.4
20260505113012 20 126 0.0 0.0 0.00 0.00 0.00 93 1005.3
20260505111512 20 113 0.0 3.2 0.00 0.00 0.00 92 1005.4